TimeCDT,TemperatureF,Dew PointF,Humidity,Sea Level PressureIn,VisibilityMPH,Wind Direction,Wind SpeedMPH,Gust SpeedMPH,PrecipitationIn,Events,Conditions,WindDirDegrees,DateUTC
12:53 AM,59.0,54.0,83,29.93,10.0,ESE,9.2,-,N/A,,Clear,120,2013-03-30 05:53:00
1:53 AM,55.9,54.0,93,29.92,10.0,East,9.2,-,N/A,,Clear,100,2013-03-30 06:53:00
2:53 AM,55.0,53.1,93,29.92,10.0,SE,3.5,-,N/A,,Clear,130,2013-03-30 07:53:00
3:53 AM,52.0,51.1,97,29.92,10.0,ENE,5.8,-,N/A,,Clear,70,2013-03-30 08:53:00
4:53 AM,53.1,52.0,96,29.93,10.0,SE,5.8,-,N/A,,Clear,140,2013-03-30 09:53:00
5:53 AM,54.0,52.0,93,29.93,10.0,SE,6.9,-,0.01,,Clear,140,2013-03-30 10:53:00
6:53 AM,52.0,51.1,97,29.93,10.0,SE,5.8,-,N/A,,Clear,130,2013-03-30 11:53:00
7:53 AM,53.1,52.0,96,29.96,10.0,Calm,Calm,-,N/A,,Clear,0,2013-03-30 12:53:00
8:53 AM,57.0,54.0,89,29.94,10.0,SE,4.6,-,N/A,,Clear,140,2013-03-30 13:53:00
9:53 AM,63.0,57.0,81,29.93,10.0,South,9.2,-,N/A,,Clear,190,2013-03-30 14:53:00
10:53 AM,68.0,59.0,73,29.92,10.0,SSW,10.4,-,N/A,,Clear,210,2013-03-30 15:53:00
11:53 AM,72.0,57.9,61,29.91,10.0,WSW,6.9,-,N/A,,Clear,240,2013-03-30 16:53:00
12:53 PM,75.9,59.0,56,29.89,10.0,SSW,6.9,-,N/A,,Clear,210,2013-03-30 17:53:00
1:53 PM,77.0,57.9,52,29.87,10.0,Calm,Calm,-,N/A,,Clear,0,2013-03-30 18:53:00
2:53 PM,78.1,57.9,50,29.84,10.0,Variable,4.6,-,N/A,,Clear,0,2013-03-30 19:53:00
3:53 PM,80.1,57.0,45,29.83,10.0,SE,6.9,-,N/A,,Clear,130,2013-03-30 20:53:00
4:53 PM,81.0,57.0,44,29.81,10.0,Variable,4.6,-,N/A,,Clear,0,2013-03-30 21:53:00
5:53 PM,80.1,57.0,45,29.80,10.0,Variable,4.6,-,N/A,,Clear,0,2013-03-30 22:53:00
6:53 PM,79.0,55.0,44,29.80,10.0,SSW,3.5,-,N/A,,Partly Cloudy,210,2013-03-30 23:53:00
7:53 PM,73.0,59.0,61,29.81,10.0,East,6.9,-,N/A,,Clear,90,2013-03-31 00:53:00
8:53 PM,70.0,60.1,71,29.83,10.0,ENE,8.1,-,N/A,,Clear,60,2013-03-31 01:53:00
9:53 PM,68.0,59.0,73,29.83,10.0,East,8.1,-,N/A,,Clear,90,2013-03-31 02:53:00
10:53 PM,64.9,59.0,81,29.83,10.0,East,9.2,-,N/A,,Clear,90,2013-03-31 03:53:00
11:53 PM,66.0,59.0,78,29.82,10.0,SE,9.2,-,N/A,,Clear,130,2013-03-31 04:53:00